EDT,Max TemperatureF,Mean TemperatureF,Min TemperatureF,Max Dew PointF,MeanDew PointF,Min DewpointF,Max Humidity, Mean Humidity, Min Humidity, Max Sea Level PressureIn, Mean Sea Level PressureIn, Min Sea Level PressureIn, Max VisibilityMiles, Mean VisibilityMiles, Min VisibilityMiles, Max Wind SpeedMPH, Mean Wind SpeedMPH, Max Gust SpeedMPH,PrecipitationIn, CloudCover, Events, WindDirDegrees
2012-10-1,65,52,38,50,43,37,100,72,44,29.96,29.92,29.83,10,4,0,13,5,17,0.01,2,Fog-Rain,58
2012-10-2,75,67,58,67,63,51,100,87,74,29.86,29.82,29.78,10,10,6,13,7,18,0.12,6,Rain,114
2012-10-3,74,67,60,66,61,55,100,79,57,30.17,30.03,29.89,10,9,2,15,6,20,0.01,5,,231
2012-10-4,74,65,56,57,54,49,100,72,44,30.22,30.18,30.15,10,9,3,16,6,22,0.00,2,,219
2012-10-5,75,67,58,57,54,53,86,68,49,30.15,30.05,29.88,10,10,10,16,8,23,0.00,2,,214
2012-10-6,64,55,45,57,43,32,100,71,41,30.13,29.98,29.87,10,8,2,22,8,31,0.26,5,Rain,297
2012-10-7,47,42,36,41,37,35,92,79,65,30.21,30.13,30.08,10,10,10,15,3,21,0.02,6,Rain,267
2012-10-8,49,42,35,40,36,34,100,78,56,30.28,30.24,30.20,10,9,4,8,2,20,0.00,2,,153
2012-10-9,59,45,31,43,37,30,100,72,43,30.24,30.16,30.04,10,6,0,13,4,26,0.01,2,Fog,197
2012-10-10,48,44,40,40,35,28,89,70,50,30.18,30.04,29.97,10,10,10,14,9,24,0.00,1,,230
2012-10-11,58,46,33,30,28,26,82,56,30,30.33,30.24,30.17,10,10,10,14,7,18,0.00,0,,217
2012-10-12,55,47,39,37,31,25,70,51,32,30.43,30.31,30.18,10,10,10,16,7,22,0.00,3,,330
2012-10-13,67,48,29,45,35,26,78,58,37,30.43,30.29,30.07,10,10,10,20,8,25,0.00,0,,148
2012-10-14,76,68,60,54,50,46,64,54,43,30.07,29.93,29.71,10,10,10,26,15,43,0.00,4,,205
2012-10-15,69,58,47,57,48,44,93,75,57,29.93,29.81,29.67,10,10,4,25,11,43,0.04,8,Rain,259
2012-10-16,58,51,43,45,39,36,93,70,47,30.01,29.94,29.90,10,10,10,14,5,18,0.00,4,,250
2012-10-17,72,59,45,48,41,37,71,56,40,29.92,29.85,29.74,10,10,10,15,8,21,0.00,1,,157
2012-10-18,67,57,46,49,44,38,93,68,42,29.83,29.73,29.66,10,10,6,28,9,38,0.09,4,Rain,166
2012-10-19,64,55,45,45,41,33,93,64,34,29.78,29.71,29.62,10,10,10,26,9,32,0.05,4,Rain,183
2012-10-20,53,49,45,45,41,38,86,74,61,29.97,29.81,29.72,10,10,6,21,9,25,0.06,8,Rain,231
2012-10-21,60,50,40,42,39,37,93,69,44,30.17,30.12,30.00,10,10,9,15,5,21,0.00,1,,225
2012-10-22,73,57,41,49,43,37,86,64,41,30.21,30.15,30.08,10,10,10,12,5,14,0.00,0,,179
2012-10-23,77,69,60,50,48,46,65,51,36,30.09,30.06,30.03,10,10,10,26,8,36,T,2,,204
2012-10-24,78,69,60,51,49,47,69,53,36,30.15,30.10,30.06,10,10,10,15,6,18,0.00,3,,203
2012-10-25,82,70,58,50,47,42,64,45,26,30.12,30.06,30.01,10,10,10,14,6,20,0.00,0,,167
2012-10-26,76,64,52,53,49,42,89,66,42,30.09,30.05,29.99,10,10,10,21,9,25,0.00,4,,236
2012-10-27,52,49,46,48,45,43,93,90,86,30.04,30.01,29.97,10,8,2,16,8,22,0.17,8,Rain,346
2012-10-28,46,44,41,43,41,39,100,93,86,30.02,29.92,29.85,10,5,2,17,10,23,0.56,8,Rain,360
2012-10-29,42,40,38,39,38,36,100,93,85,29.87,29.66,29.26,10,7,2,32,16,45,1.09,8,Rain,323
2012-10-30,46,42,38,45,41,35,100,93,86,29.39,29.24,29.07,10,7,1,30,10,41,0.82,8,Rain,295
2012-10-31,40,38,36,39,37,34,100,93,85,29.70,29.58,29.37,10,6,2,20,12,26,0.20,8,Rain,252